Zurück zum Katalog

SL-8 R/B

AktivPO
NORAD 17160·ROCKET BODY·🇷🇺 Russia

Gestartet Nov 24, 1986 von Plesetsk Cosmodrome

Loading…

Nächste Überflüge (nächste 24 Stunden)

TLE

AktuellSource: Space-Track

Epoche: Sep 14, 2026, 11:56 UTC

1 17160U 86093B   26257.49781226 -.00000087  00000-0 -10711-3 0  9992
2 17160  82.9233  79.2041 0040094  97.5983 291.6863 13.74931244996484

Verfolge SL-8 R/B in Echtzeit mit AllMySat

Download on the App Store